Skip Page Navigation
NASA JPL Caltech
NASA Logo - Jet Propulsion Laboratory + View the NASA Portal
+ Center for Near-Earth Object Studies
JPL Home Earth Solar System Stars & Galaxies Technology
JPL Solar System Dynamics
BODIES ORBITS EPHEMERIDES TOOLS PHYSICAL DATA DISCOVERY FAQ SITE MAP
JPL Small-Body Database Browser
Search: [ help ]  
118725 (2000 QD82)
Classification: Main-belt Asteroid          SPK-ID: 2118725
Ephemeris | Orbit Diagram | Orbital Elements | Mission Design | Physical Parameters | Discovery Circumstances | Close-Approach Data ]

[ show orbit diagram ]
Orbital Elements at Epoch 2459000.5 (2020-May-31.0) TDB
Reference: JPL 23 (heliocentric ecliptic J2000)
 Element Value Uncertainty (1-sigma)   Units 
e .1757785079921942 3.9225e-08  
a 2.675631319647024 2.0901e-08 au
q 2.205312838342284 1.0885e-07 au
i 12.62318286661314 5.632e-06 deg
node 344.427185794147 2.0713e-05 deg
peri 266.8591378232942 3.0698e-05 deg
M 262.6526811910065 2.8825e-05 deg
tp 2459432.774211203717
(2021-Aug-06.27421120)
0.00013137 TDB
period 1598.59272897572
4.38
1.8732e-05
5.129e-08
d
yr
n .2251980717006426 2.6388e-09 deg/d
Q 3.145949800951763 2.4575e-08 au
  Orbit Determination Parameters
   # obs. used (total)      729  
   data-arc span      7102 days (19.44 yr)  
   first obs. used      2000-08-24  
   last obs. used      2020-02-03  
   planetary ephem.      DE431  
   SB-pert. ephem.      SB431-N16  
   condition code      0  
   norm. resid. RMS      .54537  
   source      ORB  
   producer      Otto Matic  
   solution date      2020-Feb-24 06:00:58  

Additional Information
 Earth MOID = 1.23558 au 
 Jupiter MOID = 2.07971 au 
 T_jup = 3.322 
[ show covariance matrix ]

Ephemeris | Orbit Diagram | Orbital Elements | Mission Design | Physical Parameters | Discovery Circumstances | Close-Approach Data ]

Physical Parameter Table
Parameter Symbol Value Units Sigma Reference Notes
absolute magnitude H 14.9   n/a MPO320358  

118725 (2000 QD82)          Discovered 2000-Aug-24 by LINEAR at Socorro
Reference: 20051116/Numbers.arcLast Updated: 2005-11-21

[ show close-approach data ]
Alternate Designations
 2000 QD82 = 2003 BF17 
Ephemeris | Orbit Diagram | Orbital Elements | Mission Design | Physical Parameters | Discovery Circumstances | Close-Approach Data ]
ABOUT SSD CREDITS/AWARDS PRIVACY/COPYRIGHT GLOSSARY LINKS
FirstGov 2020-Oct-27 06:12 UT
(server date/time)  
NASA Home Page
Site Manager:   Ryan S. Park
Webmaster  Alan B. Chamberlin